Regional Weather Roundup
Issued by NWS

Home | Current Version | Previous Version | Text Only | Print | Product List | Glossary On
Versions: 1 2 3 4 5 6 7 8 9 10 11 12 13 14 15 16 17 18 19 20 21 22 23 24 25 26 27 28 29 30 31 32 33 34 35 36 37 38 39 40 41 42 43 44 45 46 47 48 49 50
000
ASUS43 KTOP 241308
RWRKS

WEATHER ROUNDUP FOR KANSAS
NATIONAL WEATHER SERVICE GOODLAND KS
800 AM CDT WED MAY 24 2017

NOTE:  "FAIR" INDICATES FEW OR NO CLOUDS BELOW 12,000 FEET WITH NO
SIGNIFICANT WEATHER AND/OR OBSTRUCTIONS TO VISIBILITY.

KSZ001>006-013>018-027>032-041>047-241400-
NORTHWEST KANSAS

CITY           SKY/WX    TMP DP  RH WIND       PRES   REMARKS
GOODLAND       SUNNY     43  37  79 CALM      29.88F
HAYS           SUNNY     46  41  82 NW7       29.88S
HILL CITY      SUNNY     45  41  86 W7        29.89S
RUSSELL        SUNNY     46  41  82 NW13      29.85S
$$

KSZ061>065-074>080-084>089-241400-
SOUTHWEST KANSAS

CITY           SKY/WX    TMP DP  RH WIND       PRES   REMARKS
DODGE CITY     SUNNY     47  39  74 N7        29.89S
ELKHART          N/A     47  35  63 W6          N/A
GARDEN CITY    SUNNY     43  37  79 NW6       29.90R
GREAT BEND     PTSUNNY   45  42  89 W10       29.88R
LIBERAL        SUNNY     46  42  86 NW5       29.91S
PRATT          CLOUDY    44  39  85 NW9       29.88S
$$

KSZ066>073-081>083-090>101-241400-
SOUTHEAST KANSAS

CITY           SKY/WX    TMP DP  RH WIND       PRES   REMARKS
CHANUTE        PTSUNNY   53  46  77 NW10      29.76S
COFFEYVILLE    SUNNY     54  49  83 NW14      29.77S
HUTCHINSON     SUNNY     50  43  77 N14       29.83F
MEDICINE LODGE   N/A     47  41  80 N3        29.87S
NEWTON         SUNNY     50  44  80 NW16      29.83S
PARSONS        SUNNY     53  47  79 N13       29.78R
WICHITA INTL   MOSUNNY   51  44  77 NW14      29.83R
WICHITA JABRA  SUNNY     50  44  80 NW15      29.82R
WICHITA MCCONL SUNNY     51  43  73 N10G17    29.82S
WINFIELD       SUNNY     51  45  79 NW10      29.83S
$$

KSZ007>012-019>026-033>040-048>060-102>105-241400-
NORTHEAST KANSAS

CITY           SKY/WX    TMP DP  RH WIND       PRES   REMARKS
CONCORDIA      SUNNY     49  45  86 NW9       29.83S
EMPORIA        PTSUNNY   51  47  86 NW10      29.78S
LAWRENCE       CLOUDY    51  49  92 W8        29.74S
MANHATTAN      PTSUNNY   50  46  86 VRB5      29.80S
MARYSVILLE     MOSUNNY   50  46  87 N12       29.80S
OLATHE IND     CLOUDY    50  48  93 W8        29.73S
OLATHE EXE     CLOUDY    49  49 100 NW8       29.72S
SALINA         SUNNY     51  44  77 NW13      29.84R
TOPEKA BILLARD CLOUDY    51  49  92 NW8       29.75S
TOPEKA FORBES  CLOUDY    52  48  86 NW16G22   29.75S
$$




USA.gov is the U.S. government's official web portal to all federal, state and local government web resources and services.